STARLINK-1677

Last updated on Fri Nov 06 2020 00:02:03 GMT+0000 (Coordinated Universal Time)

1 46576U 20070AW 20310.58343750 -.00004137 00000-0 -39357-4 0 9996 2 46576 53.0027 294.1877 0001099 61.3712 59.0753 15.62763641 1779
UTC large
Height (km)
Speed (km/s)
/
Latitude / Longitude
Inclination (degrees)
Orbital Period (minutes)
Azimuth
Elevation
Range (km)
Doppler Factor

Next 0 passes for location: London (51.5072 / 0.1276)

Sorry there are no passes over London.
STARLINK-1677